COSMOS 2251 DEB, 38197

Orbit data source: Space-Track

COSMOS 2251 DEB, 38197 is space debris in LEO originally from a launch on Wed, 16 Jun 1993 UTC launched from the Plesetsk Missile And Space Complex (PKMTR). The debris from Iridium 33, an American commercial communications satellite, has been tracked extensively since its accidental collision with the defunct Russian satellite Cosmos 2251 in 2009. This event, occurring at high speed in low Earth orbit (LEO), generated thousands of pieces of space debris, significantly increasing the risk of further collisions. The Iridium 33 debris cloud has impacted space traffic management and orbital debris mitigation strategies, making it a subject of ongoing study in space situational awareness.

Loading next visibility...
Identifier
38197, 1993-036BSM
Orbit
LEO
Country
Flag of CISCIS
Related business
Manufacturer
Unknown
Mission
Spacecraft
Bus & Motor
Unknown
Mass
Unknown
Launch date (UTC)
1993-06-16 (33 years ago)
Launch vehicle
Unknown
Launch site
Plesetsk Missile And Space Complex (PKMTR)
Object type
Payload
Rocket body
Debris
Shape & HBR
Unknown shape, 0.1 m
Radar Cross Section
Small (<0.1 m²)

Expand to show TLE details & history
Last TLE update: 6 days ago

TLE from 6 days ago
0 COSMOS 2251 DEB
1 38197U 93036BSM 26168.22087765  .00023597  00000-0  27336-2 0  9998
2 38197  73.9340 348.6017 0109334 178.0932 182.0685 14.81130550885105
Epoch: 2026-06-17T05:18Z
TLE epoch observation values (Epoch: 2026-06-17T05:18:03.828Z)
Latitude
-0.00009°
Longitude
3.60405°
Altitude
704.959 km
Speed
7.462 km/s
True Right ascension
23h 14m 24s
True Declination
0° 00' 00"
Sunlit
Object was in daylight at epoch
Visualization orbit readout
Latitude
Unknown
Longitude
Unknown
Altitude
Unknown
Speed
Unknown
Apparent Right ascension
Unknown
Apparent Declination
Unknown
Sunlit
N/A
Visualization observer readout
Local Sidereal Time
08:39:15
Azimuth
Unknown
Elevation
Unknown
Doppler factor
Unknown
Orbital elements
Apogee altitude
699.891 km
Perigee altitude
546.791 km
Semi-major axis
7,001.478 km
Eccentricity
0.01093
Inclination
73.934°
RAAN
348.6017°
Arg. of periapsis
178.0932°
True anomaly
182.02389°
Mean anomaly
182.0685°
Eccentric anomaly
182.04613°
Mean motion
3.70475 °/min
Orbital period
97.17 mins
BSTAR
0.0027336

Documentation

Showing up to 5 results
|